Location: Newark
(35.6833°N, 139.7500°E)
Time: 06:50:09
(UTC+00:00)

Hubble Space Telescope - Visible Passes

Search period start: 18 September 2020 00:00
Search period end: 28 September 2020 00:00
Orbit: 536 x 540 km, 28.5° (Epoch: 17 September)

Date Brightness Start Highest point End Pass type
(mag) Time Alt. Az. Time Alt. Az. Time Alt. Az.
23 Sep 3.3 19:19:24 10° S 19:20:37 11° SSE 19:21:51 10° SE visible
24 Sep 3.2 19:07:44 10° S 19:09:47 14° SSE 19:11:52 10° SE visible
25 Sep 2.9 18:57:47 15° S 18:58:56 16° SSE 19:01:31 10° ESE visible
26 Sep 2.7 18:47:47 18° S 18:48:07 19° SSE 18:51:02 10° ESE visible
27 Sep 2.6 18:37:45 21° SSE 18:37:45 21° SSE 18:40:27 10° ESE visible
